This demonstration page uses our WeatherBlox Daily Observations layout. Learn more.

Left ArrowRight Arrow

Hourly Observations for November 22, 2020

Temp ( °F °C ) Dew Point ( °F °C ) Humidity (%) Winds ( mph kmh ) Pressure ( in mb ) Visibility ( mi km ) Precip ( " mm )
12:52 am 00:52 Cloudy 39 3.9 33 0.6 79 79 SSE 5 7 30.36 1028 10 16 0.00 0.00
1:52 am 01:52 Cloudy with Light Rain 40 4.4 32 0 73 73 S 5 7 30.35 1028 10 16 0.00 0.00
2:52 am 02:52 Cloudy 40 4.4 33 0.6 77 77 SSE 3 6 30.35 1028 10 16 0.00 0.00
3:52 am 03:52 Cloudy 41 5 32 0 70 70 S 5 7 30.33 1027 10 16 0.00 0.00
4:52 am 04:52 Cloudy 42 5.6 33 0.6 71 71 S 5 7 30.32 1027 10 16 0.00 0.00
5:52 am 05:52 Partly Cloudy 39 3.9 33 0.6 79 79 S 6 9 30.31 1027 10 16 0.00 0.00
6:52 am 06:52 Mostly Clear 41 5 35 1.7 79 79 W 12 19 30.31 1026 10 16 0.00 0.00
7:52 am 07:52 Sunny 38 3.3 33 0.6 83 83 NW 8 13 30.33 1027 10 16 0.00 0.00
8:52 am 08:52 Sunny 40 4.4 31 -0.6 70 70 NW 12 19 30.35 1028 10 16 0.00 0.00
9:52 am 09:52 Sunny 43 6.1 30 -1.1 60 60 NW 9 15 30.35 1028 10 16 0.00 0.00
10:52 am 10:52 Sunny 47 8.3 28 -2.2 48 48 NW 14 22 30.35 1028 10 16 0.00 0.00
11:52 am 11:52 Sunny 49 9.4 28 -2.2 44 44 NW 13 20 30.33 1027 10 16 0.00 0.00
12:52 pm 12:52 Sunny 49 9.4 29 -1.7 46 46 NW 14 22 30.32 1027 10 16 0.00 0.00
1:52 pm 13:52 Sunny 49 9.4 29 -1.7 46 46 WNW 18 30 30.32 1027 10 16 0.00 0.00
2:52 pm 14:52 Sunny 50 10 29 -1.7 44 44 NW 14 22 30.30 1026 10 16 0.00 0.00
3:52 pm 15:52 Sunny 49 9.4 28 -2.2 44 44 NW 17 28 30.31 1027 10 16 0.00 0.00
4:52 pm 16:52 Sunny 45 7.2 28 -2.2 52 52 NW 10 17 30.32 1027 10 16 0.00 0.00
5:52 pm 17:52 Clear 40 4.4 27 -2.8 60 60 NW 7 11 30.34 1027 10 16 0.00 0.00
6:52 pm 18:52 Clear 37 2.8 27 -2.8 67 67 N 5 7 30.35 1028 10 16 0.00 0.00
7:52 pm 19:52 Clear 35 1.7 29 -1.7 78 78 Calm 30.36 1028 10 16 0.00 0.00
8:52 pm 20:52 Clear 35 1.7 27 -2.8 72 72 NNE 3 6 30.36 1028 10 16 0.00 0.00
9:52 pm 21:52 Clear 32 0 26 -3.3 79 79 Calm 30.36 1028 10 16 0.00 0.00
10:52 pm 22:52 Clear 30 -1.1 28 -2.2 92 92 Calm 30.36 1028 10 16 0.00 0.00
11:52 pm 23:52 Clear 28 -2.2 24 -4.4 85 85 Calm 30.36 1028 10 16 0.00 0.00

Powered by AerisWeather